EW0150 Weather Reports


Display with metric or nautical units.
time (UTC)temp
F
wind
direction
speed
MPH
gust
MPH
rain 1hr
in
rain 24hr
in
rain mn
in
humidity
%
barometer
mb
20190521065946 62 0 0.0 0.0 0.00 0.00 0.00 78 1003.5
20190521064646 61 0 0.0 0.0 0.00 0.00 0.00 82 1003.5
20190521063346 61 0 0.0 0.0 0.00 0.00 0.00 80 1003.5
20190521062046 60 0 0.0 0.0 0.00 0.00 0.00 83 1003.4
20190521060746 59 0 0.0 0.0 0.00 0.00 0.00 84 1003.4
20190521055446 57 0 0.0 0.0 0.00 0.00 0.00 89 1003.4
20190521054146 56 0 0.0 0.0 0.00 0.00 0.00 91 1003.5
20190521052846 54 0 0.0 0.0 0.00 0.00 0.00 93 1003.3
20190521051546 53 0 0.0 0.0 0.00 0.00 0.00 96 1003.4
20190521050246 51 0 0.0 0.0 0.00 0.00 0.00 97 1003.4
20190521044946 50 0 0.0 0.0 0.00 0.00 0.00 99 1003.4
20190521043646 49 0 0.0 0.0 0.00 0.00 0.00 98 1003.4
20190521042346 48 0 0.0 0.0 0.00 0.00 0.00 98 1003.3
20190521041046 48 0 0.0 0.0 0.00 0.00 0.00 98 1003.4
20190521035745 47 0 0.0 0.0 0.00 0.01 0.00 97 1003.2
20190521034446 47 0 0.0 0.0 0.00 0.02 0.00 97 1003.1
20190521033146 47 0 0.0 0.0 0.00 0.02 0.00 98 1003.1
20190521031845 47 0 0.0 0.0 0.00 0.02 0.00 97 1003.1
20190521030546 47 0 0.0 0.0 0.00 0.02 0.00 96 1003.2
20190521025246 47 0 0.0 0.0 0.00 0.02 0.00 94 1003.1
20190521023945 48 0 0.0 0.0 0.00 0.02 0.00 96 1003.1
20190521022646 48 0 0.0 0.0 0.00 0.02 0.00 95 1003.1
20190521021346 49 0 0.0 0.0 0.00 0.02 0.00 93 1003.3
20190521020046 50 0 0.0 0.0 0.00 0.02 0.00 94 1003.3
20190521014746 50 0 0.0 0.0 0.00 0.02 0.00 94 1003.2
20190521013446 50 0 0.0 0.0 0.00 0.02 0.00 94 1003.3
20190521012146 49 0 0.0 0.0 0.00 0.02 0.00 94 1003.3
20190521010845 50 0 0.0 0.0 0.00 0.02 0.00 94 1003.1
20190521005545 50 0 0.0 0.0 0.00 0.02 0.00 93 1003.2
20190521004246 51 0 0.0 0.0 0.00 0.02 0.00 93 1003.3
20190521002945 51 0 0.0 0.0 0.00 0.02 0.00 93 1003.3
20190521001646 51 0 0.0 0.0 0.00 0.02 0.00 94 1003.4
20190521000346 51 0 0.0 0.0 0.00 0.02 0.00 94 1003.3
20190520235045 51 0 0.0 0.0 0.00 0.02 0.00 94 1003.4
20190520233746 51 0 0.0 0.0 0.00 0.02 0.00 94 1003.4
20190520232445 51 0 0.0 0.0 0.00 0.02 0.00 93 1003.4
20190520231145 52 0 0.0 0.0 0.00 0.02 0.00 93 1003.4
20190520225846 51 0 0.0 0.0 0.00 0.02 0.00 93 1003.4
20190520224546 52 0 0.0 0.0 0.00 0.02 0.00 92 1003.4
20190520223245 52 0 0.0 0.0 0.00 0.02 0.00 92 1003.5
20190520221945 53 0 0.0 0.0 0.00 0.02 0.00 91 1003.5
20190520220646 53 0 0.0 0.0 0.00 0.02 0.00 90 1003.7
20190520215346 54 0 0.0 0.0 0.00 0.02 0.02 89 1003.7
20190520214045 55 0 0.0 0.0 0.00 0.02 0.02 87 1003.7
20190520212745 55 0 0.0 0.0 0.00 0.02 0.02 86 1003.6
20190520211445 55 212 3.0 5.0 0.00 0.02 0.02 87 1003.6
20190520210145 54 164 0.0 4.0 0.00 0.02 0.02 87 1003.6
20190520204845 56 0 0.0 0.0 0.00 0.02 0.02 84 1003.5
20190520203546 57 0 0.0 0.0 0.00 0.02 0.02 82 1003.5
20190520202246 58 0 0.0 0.0 0.00 0.02 0.02 80 1003.4
20190520200945 59 0 0.0 0.0 0.00 0.02 0.02 79 1003.5
20190520195645 59 187 3.0 5.0 0.00 0.02 0.02 77 1003.6
20190520194345 60 189 4.0 6.0 0.00 0.02 0.02 76 1003.7
20190520193045 60 171 6.0 9.0 0.00 0.02 0.02 76 1003.7
20190520191746 61 172 5.0 7.0 0.00 0.02 0.02 74 1003.7
20190520190445 62 161 6.0 11.0 0.00 0.02 0.02 73 1003.5
20190520185145 63 164 7.0 11.0 0.00 0.02 0.02 72 1003.6
20190520183845 63 161 7.0 11.0 0.00 0.02 0.02 71 1003.5
20190520182546 64 157 5.0 10.0 0.00 0.02 0.02 70 1003.2
20190520181245 65 163 7.0 11.0 0.00 0.02 0.02 69 1003.1
20190520175945 66 157 6.0 9.0 0.00 0.02 0.02 67 1002.9
20190520174645 66 157 6.0 10.0 0.00 0.02 0.02 66 1002.9
20190520173345 67 163 6.0 10.0 0.00 0.02 0.02 65 1002.7
20190520172045 67 164 9.0 16.0 0.00 0.02 0.02 64 1002.9
20190520170745 69 181 9.0 16.0 0.00 0.02 0.02 63 1002.8
20190520165445 69 189 8.0 12.0 0.00 0.02 0.02 62 1002.8
20190520164145 69 170 10.0 17.0 0.00 0.02 0.02 63 1002.8
20190520162845 69 165 11.0 20.0 0.00 0.02 0.02 62 1002.7
20190520161545 70 181 12.0 18.0 0.00 0.02 0.02 59 1002.9
20190520160245 69 164 12.0 23.0 0.00 0.02 0.02 62 1002.9
20190520154945 70 156 13.0 19.0 0.00 0.02 0.02 60 1002.9
20190520153645 70 157 10.0 16.0 0.00 0.02 0.02 61 1002.8
20190520152345 70 160 10.0 15.0 0.00 0.02 0.02 63 1002.8
20190520151045 70 181 10.0 18.0 0.00 0.02 0.02 60 1002.8
20190520145745 70 175 13.0 21.0 0.00 0.02 0.02 61 1002.7
20190520144445 72 179 10.0 17.0 0.00 0.02 0.02 59 1002.8
20190520143145 71 166 12.0 21.0 0.00 0.02 0.02 63 1002.8
20190520141845 70 166 10.0 17.0 0.00 0.02 0.02 61 1002.8
20190520140545 71 163 11.0 26.0 0.00 0.03 0.02 61 1002.9
20190520135245 71 163 10.0 19.0 0.00 0.06 0.02 64 1002.8
20190520133945 70 169 10.0 16.0 0.00 0.07 0.02 61 1002.9
20190520132645 70 151 8.0 14.0 0.00 0.20 0.02 64 1003.3
20190520131345 69 176 12.0 19.0 0.00 0.20 0.02 68 1003.6
20190520130045 70 159 10.0 17.0 0.00 0.20 0.02 65 1003.8
20190520124745 70 161 11.0 20.0 0.00 0.20 0.02 62 1003.8
20190520123445 69 159 11.0 17.0 0.00 0.20 0.02 68 1003.9
20190520122145 67 166 13.0 25.0 0.00 0.20 0.02 66 1003.9
20190520120845 68 164 15.0 24.0 0.00 0.20 0.02 67 1003.9
20190520115545 68 182 15.0 28.0 0.00 0.20 0.02 67 1004.1
20190520114245 69 183 15.0 24.0 0.00 0.20 0.02 66 1003.8
20190520112945 69 182 14.0 23.0 0.00 0.20 0.02 67 1003.7
20190520111645 69 192 10.0 17.0 0.00 0.20 0.02 71 1003.8
20190520110345 67 178 12.0 22.0 0.00 0.20 0.02 70 1003.7
20190520105045 67 186 11.0 18.0 0.00 0.20 0.02 74 1003.7
20190520103745 65 185 8.0 15.0 0.00 0.20 0.02 72 1003.7
20190520102445 65 171 13.0 22.0 0.00 0.20 0.02 74 1003.6
20190520101145 65 170 15.0 24.0 0.00 0.20 0.02 71 1003.5
20190520095845 66 175 12.0 21.0 0.00 0.20 0.02 72 1003.3
20190520094545 65 197 8.0 14.0 0.00 0.20 0.02 84 1003.3
20190520093245 65 195 9.0 14.0 0.00 0.20 0.02 80 1003.2
20190520091945 66 191 9.0 12.0 0.00 0.20 0.02 77 1002.9
20190520090645 62 201 10.0 19.0 0.00 0.20 0.02 83 1002.6
20190520085345 63 196 11.0 17.0 0.00 0.20 0.02 83 1002.7
20190520084045 63 201 12.0 23.0 0.00 0.20 0.02 81 1002.6
20190520082745 64 200 12.0 19.0 0.00 0.20 0.02 83 1002.3
20190520081445 62 197 13.0 27.0 0.00 0.20 0.02 87 1002.5
20190520080145 62 198 12.0 20.0 0.00 0.20 0.02 87 1002.4
20190520074845 63 195 13.0 22.0 0.00 0.20 0.02 86 1001.9
20190520073545 64 189 12.0 20.0 0.00 0.20 0.02 90 1001.5
20190520072245 65 181 6.0 10.0 0.00 0.20 0.02 86 1001.1
20190520070945 62 137 2.0 7.0 0.00 0.20 0.02 92 1001.0